Location: Palau
(42.3086°N, 3.1507°E)
Time: 01:34:06
(UTC+00:00)

STARLINK-1197 - Pass Details

Date: 26 May 2020
Orbit: 549 x 550 km, 53.0° (Epoch: 15 July)

Event Time Altitude Azimuth Distance (km) Brightness Sun altitude
Rises 03:32:26 0° 302° (WNW) 2,723 7.0 -7.6°
Reaches altitude 10° 03:34:45 10° 296° (WNW) 1,826 6.0 -7.3°
Maximum altitude 03:38:41 42° 225° (SW) 786 4.0 -6.7°
Drops below altitude 10° 03:42:35 10° 153° (SSE) 1,816 6.2 -6.1°
Sets 03:44:53 0° 147° (SSE) 2,705 7.1 -5.8°
